Date String (YYYY-MM-DD hh:mm:ss) UTC,Instrument flags,Ambient pressure (hPa),Sample flow (lpm),Bypass flow (lpm),Sample temperature (°C),Ambient temperature (°C),ASC tube jacket temperature (°C),LED temperature (°C),Box temperature (°C),Sample RH (%),Span deviation,Mass concentration (μg/m³),Mass concentration (μg/m³),Mass concentration (μg/m³)
DateTimeUTC,F1_M11,P_M11,Q1_M11,Q2_M11,T1_M11,T2_M11,T3_M11,T4_M11,T5_M11,U1_M11,ZSPAN_M11,X0_M11,X2_M11,X1_M11
2023-05-22 14:00:00,,0831.1,4.99,0.00,28.0,26.4,00.0,36.3,29.7,21.2,0003.3,0039.86,0029.36,0028.12
2023-05-22 14:01:00,,0831.1,5.00,0.00,28.0,26.4,00.0,36.3,29.7,22.2,0003.4,0039.37,0029.31,0028.10
2023-05-22 14:02:00,,0831.1,4.99,0.00,28.1,26.4,00.0,36.3,29.7,24.6,0003.4,0038.67,0029.10,0027.93
2023-05-22 14:03:00,,0831.2,5.00,0.00,28.1,26.4,00.0,36.4,29.7,25.0,0003.4,0038.34,0028.91,0027.74
2023-05-22 14:04:00,,0831.1,5.00,0.00,28.1,26.4,00.0,36.4,29.7,25.5,0003.3,0037.84,0028.66,0027.53
2023-05-22 14:05:00,,0831.1,5.00,0.00,28.1,26.4,00.0,36.4,29.7,24.0,0003.3,0037.43,0028.41,0027.32
2023-05-22 14:06:00,,0831.1,5.00,0.00,28.1,26.5,00.0,36.4,29.7,22.8,0003.3,0037.47,0028.35,0027.27
2023-05-22 14:07:00,,0831.1,5.01,0.00,28.1,26.5,00.0,36.4,29.7,21.4,0003.3,0037.60,0028.41,0027.33
2023-05-22 14:08:00,,0831.1,5.01,0.00,28.1,26.4,00.0,36.4,29.7,20.6,0003.3,0037.74,0028.55,0027.47
2023-05-22 14:09:00,,0831.1,5.00,0.00,28.1,26.4,00.0,36.4,29.7,20.5,0003.2,0037.81,0028.65,0027.57
2023-05-22 14:10:00,,0831.1,5.00,0.00,28.1,26.4,00.0,36.4,29.7,20.0,0003.2,0037.82,0028.80,0027.68
2023-05-22 14:11:00,,0831.1,5.00,0.00,28.1,26.4,00.0,36.4,29.7,19.8,0003.2,0037.90,0028.90,0027.77
2023-05-22 14:12:00,,0831.2,5.00,0.00,28.1,26.4,00.0,36.4,29.7,20.2,0003.3,0038.12,0029.02,0027.85
2023-05-22 14:13:00,,0831.1,4.99,0.00,28.1,26.4,00.0,36.4,29.7,20.5,0003.3,0038.45,0029.26,0028.07
2023-05-22 14:14:00,,0831.1,5.00,0.00,28.1,26.4,00.0,36.4,29.7,21.1,0003.4,0038.80,0029.52,0028.35
2023-05-22 14:15:00,,0831.1,4.99,0.00,28.1,26.5,00.0,36.4,29.7,21.4,0003.5,0039.28,0029.81,0028.62
2023-05-22 14:16:00,,0831.1,5.01,0.00,28.1,26.5,00.0,36.4,29.7,22.6,0003.5,0039.49,0029.96,0028.75
2023-05-22 14:17:00,,0831.1,5.00,0.00,28.1,26.5,00.0,36.4,29.8,25.3,0003.5,0038.90,0029.67,0028.44
2023-05-22 14:18:00,,0831.1,5.00,0.00,28.1,26.5,00.0,36.4,29.8,25.7,0003.6,0037.80,0029.04,0027.84
2023-05-22 14:19:00,,0831.1,5.01,0.00,28.1,26.5,00.0,36.4,29.8,24.5,0003.6,0037.54,0028.45,0027.24
2023-05-22 14:20:00,,0831.2,5.00,0.00,28.1,26.5,00.0,36.4,29.8,23.2,0003.7,0037.61,0028.11,0026.93
2023-05-22 14:21:00,,0831.2,5.00,0.00,28.2,26.6,00.0,36.4,29.8,22.8,0003.7,0037.14,0027.80,0026.67
2023-05-22 14:22:00,,0831.2,4.99,0.00,28.2,26.6,00.0,36.4,29.8,23.3,0003.6,0036.77,0027.48,0026.35
2023-05-22 14:23:00,,0831.2,5.00,0.00,28.2,26.6,00.0,36.4,29.8,23.0,0003.5,0036.62,0027.19,0026.10
2023-05-22 14:24:00,,0831.2,5.00,0.00,28.2,26.6,00.0,36.5,29.8,23.4,0003.6,0036.56,0026.94,0025.87
2023-05-22 14:25:00,,0831.2,5.01,0.00,28.2,26.6,00.0,36.5,29.8,22.9,0003.5,0036.37,0026.71,0025.64
2023-05-22 14:26:00,,0831.2,5.00,0.00,28.2,26.6,00.0,36.5,29.8,21.9,0003.4,0036.18,0026.57,0025.49
2023-05-22 14:27:00,,0831.2,5.00,0.00,28.2,26.6,00.0,36.5,29.9,22.7,0003.3,0036.40,0026.49,0025.44
2023-05-22 14:28:00,,0831.2,5.00,0.00,28.2,26.7,00.0,36.5,29.9,22.0,0003.3,0036.55,0026.68,0025.62
2023-05-22 14:29:00,,0831.2,5.01,0.00,28.2,26.7,00.0,36.5,29.9,22.3,0003.3,0037.79,0027.07,0026.07
2023-05-22 14:30:00,,0831.2,5.00,0.00,28.2,26.7,00.0,36.5,29.9,21.5,0003.2,0038.04,0027.47,0026.47
2023-05-22 14:31:00,,0831.2,5.00,0.00,28.2,26.7,00.0,36.5,29.9,22.3,0003.0,0037.79,0027.71,0026.68
2023-05-22 14:32:00,,0831.2,4.99,0.00,28.3,26.7,00.0,36.5,29.9,21.5,0003.1,0037.94,0027.84,0026.75
2023-05-22 14:33:00,,0831.2,4.99,0.00,28.3,26.7,00.0,36.5,29.9,21.9,0003.1,0038.07,0027.97,0026.90
2023-05-22 14:34:00,,0831.2,5.01,0.00,28.3,26.7,00.0,36.5,29.9,24.8,0003.2,0037.79,0027.89,0026.85
2023-05-22 14:35:00,,0831.2,5.00,0.00,28.3,26.7,00.0,36.6,30.0,24.3,0003.1,0037.08,0027.63,0026.58
2023-05-22 14:36:00,,0831.2,5.00,0.00,28.3,26.8,00.0,36.6,30.0,25.4,0003.2,0036.38,0027.29,0026.26
2023-05-22 14:37:00,,0831.2,5.00,0.00,28.3,26.8,00.0,36.6,30.0,25.8,0003.3,0035.78,0026.85,0025.83
2023-05-22 14:38:00,,0831.3,5.01,0.00,28.3,26.8,00.0,36.6,30.0,25.6,0003.2,0034.81,0026.35,0025.31
2023-05-22 14:39:00,,0831.2,5.00,0.00,28.3,26.8,00.0,36.6,30.0,26.4,0003.2,0034.26,0025.85,0024.80
2023-05-22 14:40:00,,0831.2,4.99,0.00,28.3,26.8,00.0,36.6,30.0,26.2,0003.2,0033.04,0025.25,0024.19
2023-05-22 14:41:00,,0831.2,4.99,0.00,28.4,26.8,00.0,36.6,30.0,26.2,0003.2,0032.80,0024.72,0023.67
2023-05-22 14:42:00,,0831.3,5.00,0.00,28.4,26.9,00.0,36.6,30.0,26.7,0003.3,0032.13,0024.05,0022.98
2023-05-22 14:43:00,,0831.3,5.00,0.00,28.4,26.9,00.0,36.6,30.1,25.9,0003.3,0031.78,0023.50,0022.43
2023-05-22 14:44:00,,0831.3,5.00,0.00,28.4,26.9,00.0,36.6,30.1,25.7,0003.3,0030.87,0022.73,0021.65
2023-05-22 14:45:00,,0831.3,5.00,0.00,28.4,26.9,00.0,36.7,30.1,24.8,0003.3,0030.30,0022.20,0021.09
2023-05-22 14:46:00,,0831.3,5.00,0.00,28.4,26.9,00.0,36.7,30.1,25.4,0003.3,0030.01,0021.88,0020.75
2023-05-22 14:47:00,,0831.3,5.00,0.00,28.4,26.9,00.0,36.7,30.1,26.8,0003.3,0029.59,0021.49,0020.38
2023-05-22 14:48:00,,0831.3,5.00,0.00,28.4,26.9,00.0,36.7,30.1,27.0,0003.4,0029.58,0021.22,0020.13
2023-05-22 14:49:00,,0831.3,5.00,0.00,28.4,26.9,00.0,36.7,30.1,26.6,0003.5,0029.66,0020.97,0019.89
2023-05-22 14:50:00,,0831.3,5.00,0.00,28.4,26.9,00.0,36.7,30.1,26.6,0003.4,0029.32,0020.73,0019.69
2023-05-22 14:51:00,,0831.3,5.00,0.00,28.5,27.0,00.0,36.7,30.1,26.8,0003.3,0029.14,0020.55,0019.52
2023-05-22 14:52:00,,0831.3,5.00,0.00,28.5,27.0,00.0,36.7,30.1,26.5,0003.3,0028.37,0020.30,0019.29
2023-05-22 14:53:00,,0831.3,5.00,0.00,28.5,27.0,00.0,36.7,30.1,27.0,0003.3,0027.81,0020.08,0019.09
2023-05-22 14:54:00,,0831.3,5.01,0.00,28.5,27.0,00.0,36.8,30.2,27.6,0003.3,0027.12,0019.93,0019.00
2023-05-22 14:55:00,,0831.3,5.00,0.00,28.5,27.0,00.0,36.8,30.2,28.4,0003.3,0027.07,0019.86,0018.96
2023-05-22 14:56:00,,0831.3,5.00,0.00,28.5,27.0,00.0,36.8,30.2,28.9,0003.4,0026.91,0019.77,0018.88
2023-05-22 14:57:00,,0831.3,5.00,0.00,28.5,27.0,00.0,36.8,30.2,28.8,0003.4,0026.80,0019.71,0018.81
2023-05-22 14:58:00,,0831.3,5.01,0.00,28.5,27.0,00.0,36.8,30.2,27.7,0003.5,0026.78,0019.72,0018.83
2023-05-22 14:59:00,,0831.3,5.00,0.00,28.5,27.0,00.0,36.8,30.2,26.2,0003.4,0026.84,0019.84,0018.92
